Regional Weather Roundup
Issued by NWS

Home | Current Version | Previous Version | Text Only | Print | Product List | Glossary Off
Versions: 1 2 3 4 5 6 7 8 9 10 11 12 13 14 15 16 17 18 19 20 21 22 23 24 25 26 27 28 29 30 31 32 33 34 35 36 37 38 39 40 41 42 43 44 45 46 47 48 49 50

000
ASUS43 KDTX 012110
RWRMI
MICHIGAN HOURLY REGIONAL WEATHER ROUNDUP
NATIONAL WEATHER SERVICE DETROIT/PONTIAC MI
500 PM EDT WED OCT 01 2014

NOTE: "FAIR" INDICATES FEW OR NO CLOUDS BELOW 12,000 FEET WITH NO
SIGNIFICANT WEATHER AND/OR OBSTRUCTION TO VISIBILITY.

MIZ047>049-052>055-059>063-066>070-074>076-081>083-012200-
SOUTHEAST LOWER MICHIGAN

CITY           SKY/WX    TMP DP  RH WIND       PRES   REMARKS
ADRIAN         MOSUNNY   67  49  52 S8        30.02F
ALMA           SUNNY     64  51  62 SE6       30.02F
ANN ARBOR      PTSUNNY   69  50  50 E8        30.01F
BAD AXE        PTSUNNY   65  60  84 S6        30.03F
CARO           MOSUNNY   66  56  71 S5        30.02S
DETROIT CITY   PTSUNNY   64  52  64 SE5       30.03S
DETROIT        PTSUNNY   67  53  61 E5        30.02F
FLINT          PTSUNNY   69  53  56 SE9       30.01F
GROSSE ILE     PTSUNNY   66  55  68 CALM      30.01F
HILLSDALE      SUNNY     67  47  50 SE5       30.01S
HOWELL         SUNNY     65  49  56 S8        30.01F

CITY           SKY/WX    TMP DP  RH WIND       PRES   REMARKS
JACKSON        MOSUNNY   66  49  54 SE8       30.01F
LAMBERTVILLE   PTSUNNY   66  52  59 CALM      30.02S
LANSING        SUNNY     66  50  56 S9        30.00F
LAPEER         MOCLDY    66  54  63 SE3       30.02F
MASON          PTSUNNY   66  50  55 SE8       30.00F
MONROE         SUNNY     66  54  63 SE6       30.00F
MT. CLEMENS    PTSUNNY   66  56  71 S3        30.01F
PONTIAC        PTSUNNY   66  51  58 SE6       30.01F
PORT HOPE        N/A     62  58  86 SE12      30.02F
PORT HURON     PTSUNNY   64  59  82 NE7       30.02F
TRI CITIES     PTSUNNY   68  52  56 S10       30.01F
TROY           MOSUNNY   70  52  53 CALM      30.03F
SAGINAW HB     CLOUDY    68  52  56 SE7       30.01S
$$
MIZ043>046-050>051-056>058-064>065-071>073-077>080-012200-
SOUTHWEST LOWER MICHIGAN

CITY           SKY/WX    TMP DP  RH WIND       PRES   REMARKS
BATTLE CREEK   SUNNY     65  49  56 S8        30.00F
BENTON HARBOR  SUNNY     67  51  56 SE9G17    29.95F
BIG RAPIDS     CLOUDY    59  54  84 SE10G17   30.00S
COLDWATER      SUNNY     67  49  53 SE7       30.00S
FREMONT        CLOUDY    61  49  63 SE8       29.98F
HOLLAND        SUNNY     66  53  63 SE10      29.98F
GRAND RAPIDS   MOSUNNY   64  52  64 S10       30.00S
IONIA          FAIR      64  50  60 SE12      29.99F
KALAMAZOO      SUNNY     66  50  56 S6        30.00F
LUDINGTON      PTSUNNY   57  52  83 SW9       29.97F
MARSHALL       SUNNY     66  48  53 S9        29.99F
MOUNT PLEASANT MOSUNNY   65  50  59 SE9       30.00F
MUSKEGON       PTSUNNY   62  49  62 SE10      29.98F
SOUTH HAVEN    SUNNY     66  52  59 SE8       29.97F
$$
MIZ016>042-012200-
NORTHERN LOWER MICHIGAN

CITY           SKY/WX    TMP DP  RH WIND       PRES   REMARKS
ALPENA         CLOUDY    58  57  97 E7        30.03S FOG
BEAVER ISLAND  PTSUNNY   63  56  77 E7        29.98F
BELLAIRE       MOSUNNY   67  52  58 S9G16     29.97F
CADILLAC       SUNNY     60  52  74 SE12      29.98F
CHARLEVOIX     PTSUNNY   65  55  70 SE9       30.00S
FRANKFORT      CLOUDY    59  52  78 W7        29.98R
GAYLORD        CLOUDY    61  53  75 S8        30.00F
GRAYLING       PTSUNNY   64  53  68 SE7       30.00F
HARBOR SPRINGS PTSUNNY   64  55  73 E10       29.99F
HOUGHTON LAKE  PTSUNNY   62  54  74 SE10G17   30.00F
OSCODA         CLOUDY    60  59  96 SE5       30.02F FOG
PELLSTON       CLOUDY    60  55  83 SE9       30.00F
TRAVERSE CITY  MOSUNNY   67  50  54 SE8       29.96S
$$
MIZ007>008-015-012200-
EASTERN UPPER MICHIGAN

CITY           SKY/WX    TMP DP  RH WIND       PRES   REMARKS
MACKINAC ISLAN FOG       55  55 100 E7        30.01F VSB 1/2
NEWBERRY       CLOUDY    56  53  89 S9G16     29.98F
S. S. MARIE    CLOUDY    54  51  90 SE12      30.01F
MUNISING         N/A     59  51  75 S14G22    29.94S
$$
MIZ004>006-011>014-085-012200-
CENTRAL UPPER MICHIGAN

CITY           SKY/WX    TMP DP  RH WIND       PRES   REMARKS
MANISTIQUE     CLOUDY    57  54  89 S7        29.97F
SAWYER-GWINN   CLOUDY    57  48  72 S21G26    29.93F
$$
MIZ001>003-009>011-084-012200-
WESTERN UPPER MICHIGAN

CITY           SKY/WX    TMP DP  RH WIND       PRES   REMARKS
IRON MOUNTAIN  CLOUDY    55  50  83 SE13      29.91F
HOUGHTON       PTSUNNY   58  47  66 S9G21     29.85F
COPPER HARBOR    N/A     57  49  74 SW8G17    29.86S
$$

ABBREVIATIONS USED IN REMARKS
   TC - TEMPERATURE IN CELSIUS
  WCI - WIND CHILL INDEX
   HX - HEAT INDEX
  VSB - VISIBILITY




USA.gov is the U.S. government's official web portal to all federal, state and local government web resources and services.